| time (UTC) | temp F | wind direction | speed MPH | gust MPH | rain 1hr in | rain 24hr in | rain mn in | humidity % | barometer mb |
| 20260508071556 | 30 | 10 | 0.0 | 0.0 | 0.00 | 0.00 | 0.00 | 69 | 1009.6 |
| 20260508070055 | 30 | 10 | 0.0 | 0.0 | 0.00 | 0.00 | 0.00 | 68 | 1009.6 |
| 20260508064552 | 30 | 10 | 0.0 | 0.0 | 0.00 | 0.00 | 0.00 | 67 | 1009.7 |
| 20260508063050 | 31 | 10 | 0.0 | 0.0 | 0.00 | 0.00 | 0.00 | 67 | 1009.6 |
| 20260508061551 | 31 | 10 | 0.0 | 0.0 | 0.00 | 0.00 | 0.00 | 67 | 1009.7 |
| 20260508060049 | 31 | 10 | 0.0 | 0.0 | 0.00 | 0.00 | 0.00 | 66 | 1009.6 |
| 20260508054546 | 32 | 10 | 0.0 | 0.0 | 0.00 | 0.00 | 0.00 | 66 | 1009.6 |
| 20260508053047 | 32 | 10 | 0.0 | 0.0 | 0.00 | 0.00 | 0.00 | 66 | 1009.9 |
| 20260508051545 | 32 | 10 | 0.0 | 0.0 | 0.00 | 0.00 | 0.00 | 66 | 1010.0 |
| 20260508050039 | 33 | 10 | 0.0 | 0.0 | 0.00 | 0.00 | 0.00 | 66 | 1010.1 |
| 20260508044537 | 33 | 10 | 0.0 | 0.0 | 0.00 | 0.00 | 0.00 | 66 | 1010.1 |
| 20260508043034 | 34 | 10 | 0.0 | 1.0 | 0.00 | 0.00 | 0.00 | 66 | 1010.0 |
| 20260508041534 | 34 | 10 | 0.0 | 0.0 | 0.00 | 0.00 | 0.00 | 66 | 1010.2 |
| 20260508040030 | 35 | 10 | 0.0 | 0.0 | 0.00 | 0.00 | 0.00 | 65 | 1010.2 |
| 20260508034533 | 35 | 10 | 0.0 | 1.0 | 0.00 | 0.00 | 0.00 | 64 | 1010.1 |
| 20260508033026 | 36 | 10 | 0.0 | 0.0 | 0.00 | 0.00 | 0.00 | 63 | 1010.1 |
| 20260508031525 | 37 | 10 | 0.0 | 0.0 | 0.00 | 0.00 | 0.00 | 62 | 1009.9 |
| 20260508030020 | 37 | 10 | 0.0 | 0.0 | 0.00 | 0.00 | 0.00 | 59 | 1009.9 |
| 20260508024517 | 38 | 10 | 0.0 | 0.0 | 0.00 | 0.01 | 0.00 | 59 | 1009.9 |
| 20260508023015 | 39 | 10 | 0.0 | 0.0 | 0.00 | 0.01 | 0.00 | 57 | 1009.8 |
| 20260508021514 | 40 | 10 | 0.0 | 0.0 | 0.00 | 0.01 | 0.00 | 56 | 1009.8 |
| 20260508020019 | 41 | 10 | 0.0 | 0.0 | 0.00 | 0.01 | 0.00 | 53 | 1009.6 |
| 20260508014512 | 42 | 10 | 0.0 | 0.0 | 0.00 | 0.05 | 0.00 | 50 | 1009.4 |
| 20260508013011 | 44 | 10 | 0.0 | 0.0 | 0.00 | 0.05 | 0.00 | 49 | 1009.6 |
| 20260508011512 | 45 | 10 | 0.0 | 0.0 | 0.00 | 0.05 | 0.00 | 46 | 1009.4 |
| 20260508010011 | 47 | 10 | 0.0 | 0.0 | 0.00 | 0.05 | 0.00 | 43 | 1009.3 |
| 20260508004511 | 48 | 10 | 0.0 | 0.0 | 0.00 | 0.14 | 0.00 | 37 | 1009.1 |
| 20260508003010 | 49 | 184 | 0.0 | 2.0 | 0.00 | 0.14 | 0.00 | 34 | 1008.9 |
| 20260508001509 | 49 | 96 | 0.0 | 4.0 | 0.00 | 0.14 | 0.00 | 34 | 1008.7 |
| 20260508000010 | 51 | 5 | 0.0 | 2.0 | 0.00 | 0.14 | 0.00 | 33 | 1008.5 |
| 20260507234508 | 52 | 291 | 0.0 | 3.0 | 0.00 | 0.14 | 0.00 | 37 | 1008.3 |
| 20260507233008 | 53 | 217 | 0.0 | 4.0 | 0.00 | 0.14 | 0.00 | 31 | 1008.0 |
| 20260507231507 | 54 | 202 | 3.0 | 8.0 | 0.00 | 0.14 | 0.00 | 26 | 1007.7 |
| 20260507230006 | 54 | 196 | 1.0 | 5.0 | 0.00 | 0.14 | 0.00 | 26 | 1007.7 |
| 20260507224510 | 55 | 206 | 0.0 | 7.0 | 0.00 | 0.14 | 0.00 | 25 | 1007.5 |
| 20260507223006 | 56 | 328 | 2.0 | 12.0 | 0.00 | 0.14 | 0.00 | 23 | 1007.3 |
| 20260507221508 | 58 | 213 | 0.0 | 6.0 | 0.00 | 0.14 | 0.00 | 22 | 1007.3 |
| 20260507220005 | 58 | 302 | 1.0 | 11.0 | 0.00 | 0.14 | 0.00 | 20 | 1007.2 |
| 20260507214510 | 59 | 301 | 1.0 | 9.0 | 0.00 | 0.18 | 0.00 | 22 | 1007.4 |
| 20260507213004 | 58 | 325 | 0.0 | 7.0 | 0.00 | 0.18 | 0.00 | 24 | 1007.2 |
| 20260507211506 | 59 | 229 | 3.0 | 13.0 | 0.00 | 0.18 | 0.00 | 21 | 1007.1 |
| 20260507210001 | 59 | 304 | 1.0 | 9.0 | 0.00 | 0.26 | 0.00 | 23 | 1007.2 |
| 20260507204600 | 59 | 360 | 3.0 | 10.0 | 0.00 | 0.26 | 0.00 | 23 | 1007.1 |
| 20260507203100 | 59 | 30 | 3.0 | 11.0 | 0.00 | 0.26 | 0.00 | 24 | 1007.0 |
| 20260507201608 | 59 | 243 | 3.0 | 11.0 | 0.00 | 0.26 | 0.00 | 23 | 1007.3 |
| 20260507200101 | 59 | 33 | 5.0 | 15.0 | 0.00 | 0.26 | 0.00 | 21 | 1007.3 |
| 20260507194555 | 59 | 232 | 4.0 | 14.0 | 0.00 | 0.27 | 0.00 | 23 | 1007.3 |
| 20260507193055 | 59 | 32 | 3.0 | 11.0 | 0.00 | 0.27 | 0.00 | 27 | 1007.5 |
| 20260507191552 | 59 | 355 | 3.0 | 12.0 | 0.00 | 0.27 | 0.00 | 25 | 1007.5 |
| 20260507190050 | 59 | 74 | 2.0 | 9.0 | 0.00 | 0.27 | 0.00 | 25 | 1007.6 |
| 20260507184547 | 58 | 263 | 1.0 | 10.0 | 0.00 | 0.42 | 0.00 | 25 | 1007.6 |
| 20260507183045 | 59 | 221 | 4.0 | 10.0 | 0.00 | 0.42 | 0.00 | 23 | 1007.7 |
| 20260507181541 | 58 | 296 | 2.0 | 10.0 | 0.00 | 0.42 | 0.00 | 26 | 1008.0 |
| 20260507180039 | 57 | 196 | 2.0 | 10.0 | 0.00 | 0.42 | 0.00 | 27 | 1008.0 |
| 20260507174538 | 57 | 34 | 1.0 | 10.0 | 0.00 | 0.57 | 0.00 | 26 | 1008.1 |
| 20260507173043 | 57 | 262 | 4.0 | 14.0 | 0.00 | 0.57 | 0.00 | 27 | 1007.9 |
| 20260507171531 | 57 | 334 | 2.0 | 11.0 | 0.00 | 0.57 | 0.00 | 29 | 1008.2 |
| 20260507170029 | 56 | 355 | 2.0 | 14.0 | 0.00 | 0.57 | 0.00 | 33 | 1008.5 |
| 20260507164525 | 55 | 265 | 3.0 | 9.0 | 0.00 | 0.62 | 0.00 | 33 | 1008.6 |
| 20260507163026 | 55 | 131 | 3.0 | 7.0 | 0.00 | 0.62 | 0.00 | 32 | 1008.7 |
| 20260507161524 | 55 | 220 | 2.0 | 8.0 | 0.00 | 0.62 | 0.00 | 37 | 1008.9 |
| 20260507160025 | 54 | 244 | 1.0 | 10.0 | 0.00 | 0.62 | 0.00 | 35 | 1009.3 |
| 20260507154520 | 54 | 318 | 2.0 | 9.0 | 0.00 | 0.64 | 0.00 | 40 | 1009.5 |
| 20260507153015 | 53 | 217 | 2.0 | 12.0 | 0.00 | 0.64 | 0.00 | 37 | 1009.4 |
| 20260507151515 | 53 | 279 | 2.0 | 11.0 | 0.00 | 0.64 | 0.00 | 40 | 1009.6 |
| 20260507150013 | 53 | 265 | 3.0 | 11.0 | 0.00 | 0.64 | 0.00 | 40 | 1009.6 |
| 20260507144514 | 53 | 305 | 4.0 | 10.0 | 0.00 | 0.65 | 0.00 | 41 | 1009.6 |
| 20260507143009 | 53 | 246 | 3.0 | 10.0 | 0.00 | 0.65 | 0.00 | 48 | 1009.6 |
| 20260507141505 | 52 | 250 | 1.0 | 8.0 | 0.00 | 0.65 | 0.00 | 49 | 1009.4 |
| 20260507140004 | 52 | 200 | 4.0 | 8.0 | 0.00 | 0.65 | 0.00 | 49 | 1009.3 |
| 20260507134557 | 51 | 280 | 3.0 | 9.0 | 0.00 | 0.65 | 0.00 | 52 | 1009.3 |
| 20260507133054 | 50 | 44 | 2.0 | 9.0 | 0.00 | 0.65 | 0.00 | 57 | 1009.2 |
| 20260507131549 | 49 | 346 | 1.0 | 5.0 | 0.00 | 0.65 | 0.00 | 67 | 1009.4 |
| 20260507130045 | 48 | 288 | 0.0 | 3.0 | 0.00 | 0.65 | 0.00 | 75 | 1009.4 |
| 20260507124543 | 47 | 246 | 0.0 | 3.0 | 0.00 | 0.65 | 0.00 | 75 | 1009.5 |
| 20260507123040 | 46 | 234 | 0.0 | 2.0 | 0.00 | 0.65 | 0.00 | 80 | 1009.4 |
| 20260507121538 | 45 | 234 | 0.0 | 2.0 | 0.00 | 0.65 | 0.00 | 81 | 1009.5 |
| 20260507120038 | 45 | 234 | 0.0 | 1.0 | 0.00 | 0.65 | 0.00 | 81 | 1009.2 |
| 20260507114537 | 44 | 234 | 0.0 | 2.0 | 0.00 | 0.65 | 0.00 | 82 | 1009.3 |
| 20260507113035 | 43 | 234 | 0.0 | 2.0 | 0.00 | 0.65 | 0.00 | 81 | 1009.2 |
| 20260507111542 | 41 | 234 | 0.0 | 2.0 | 0.00 | 0.65 | 0.00 | 82 | 1009.2 |
| 20260507110034 | 41 | 234 | 0.0 | 0.0 | 0.00 | 0.65 | 0.00 | 81 | 1009.3 |
| 20260507104530 | 40 | 234 | 0.0 | 1.0 | 0.00 | 0.65 | 0.00 | 81 | 1009.3 |
| 20260507103035 | 40 | 234 | 0.0 | 1.0 | 0.00 | 0.65 | 0.00 | 81 | 1009.2 |
| 20260507101629 | 40 | 234 | 0.0 | 1.0 | 0.00 | 0.65 | 0.00 | 81 | 1009.1 |
| 20260507100033 | 40 | 234 | 0.0 | 1.0 | 0.00 | 0.65 | 0.00 | 81 | 1008.8 |
| 20260507094531 | 40 | 234 | 0.0 | 1.0 | 0.00 | 0.65 | 0.00 | 81 | 1009.2 |
| 20260507093022 | 40 | 234 | 0.0 | 1.0 | 0.00 | 0.65 | 0.00 | 81 | 1009.0 |
| 20260507091526 | 40 | 234 | 0.0 | 0.0 | 0.00 | 0.65 | 0.00 | 81 | 1009.2 |
| 20260507090019 | 40 | 234 | 0.0 | 0.0 | 0.00 | 0.65 | 0.00 | 81 | 1009.3 |
| 20260507084523 | 40 | 234 | 0.0 | 1.0 | 0.00 | 0.65 | 0.00 | 81 | 1009.2 |
| 20260507083015 | 41 | 234 | 0.0 | 1.0 | 0.00 | 0.65 | 0.00 | 81 | 1009.2 |
| 20260507081521 | 41 | 234 | 0.0 | 2.0 | 0.00 | 0.65 | 0.00 | 81 | 1009.2 |
| 20260507080013 | 41 | 234 | 0.0 | 0.0 | 0.00 | 0.65 | 0.00 | 81 | 1009.2 |
| 20260507074513 | 42 | 234 | 0.0 | 0.0 | 0.00 | 0.65 | 0.00 | 81 | 1008.9 |
| 20260507073009 | 42 | 234 | 0.0 | 0.0 | 0.00 | 0.65 | 0.00 | 81 | 1008.7 |